Location: Maiden
(35.5760°N, 81.2120°W)
Time: 19:22:11
(UTC-04:00)

Vanguard 2 - Pass Details

Date: 03 August 2021
Orbit: 552 x 2937 km, 32.9° (Epoch: 24 September)

Event Time Altitude Azimuth Distance (km) Brightness Sun altitude
Exits shadow 04:55:13 30° 181° (S) 1,008 7.8 -18.3°
Maximum altitude 04:55:53 32° 160° (SSE) 970 7.9 -18.2°
Drops below altitude 10° 04:59:40 10° 97° (E) 1,959 10.3 -17.6°
Sets 05:02:23 0° 87° (E) 3,046 11.6 -17.2°
